SL-16 DEB, 18550

Orbit data source: Space-Track

SL-16 DEB, 18550 is space debris in LEO originally from a launch on Wed, 18 Mar 1987 UTC launched from the Tyuratam Missile And Space Complex (TTMTR). Debris objects in space refer to the collection of defunct objects orbiting the Earth. Examples of debris include non-operational satellites, rocket bodies, and fragments generated from explosions, collisions, or faulty payload assembly.

Loading next visibility...
Identifier
18550, 1987-027F
Orbit
LEO
Country
Flag of CISCIS
Related business
Manufacturer
Yuzhnoe
Mission
Spacecraft
Bus & Motor
SEP MOTOR COVER, Unknown motor
Mass
~0 kg wet, ~1 kg dry
Launch date (UTC)
1987-03-18 (39 years ago)
Launch vehicle
Unknown
Launch site
Tyuratam Missile And Space Complex (TTMTR)
Object type
Payload
Rocket body
Debris
Shape & HBR
CONE, 0.1 m
Radar Cross Section
Medium (>0.1 m² and <1 m²)

Expand to show TLE details & history
Last TLE update: 8 hours ago

TLE from 8 hours ago
0 SL-16 DEB
1 18550U 87027F   26255.23486661  .00000085  00000-0  11141-3 0  9993
2 18550  71.0273 355.8136 0182754 312.8695  45.7181 13.79295322985981
Epoch: 2026-09-12T05:38Z
TLE epoch observation values (Epoch: 2026-09-12T05:38:12.475Z)
Latitude
0.00003°
Longitude
-79.98516°
Altitude
876.306 km
Speed
7.461 km/s
True Right ascension
23h 43m 15s
True Declination
0° 00' 00"
Sunlit
Object was in full shadow at epoch
Visualization orbit readout
Latitude
Unknown
Longitude
Unknown
Altitude
Unknown
Speed
Unknown
Apparent Right ascension
Unknown
Apparent Declination
Unknown
Sunlit
N/A
Visualization observer readout
Local Sidereal Time
06:07:05
Azimuth
Unknown
Elevation
Unknown
Doppler factor
Unknown
Orbital elements
Apogee altitude
1,098.53 km
Perigee altitude
830.157 km
Semi-major axis
7,342.481 km
Eccentricity
0.01828
Inclination
71.0273°
RAAN
355.8136°
Arg. of periapsis
312.8695°
True anomaly
47.24147°
Mean anomaly
45.7181°
Eccentric anomaly
46.47736°
Mean motion
3.44968 °/min
Orbital period
104.36 mins
BSTAR
0.00011141
Loading maneuver chart data...
Computing Atmospheric mass density...
Loading historical data...
Loading historical data...
Loading historical data...
Loading historical data...
Loading historical data...
Loading historical data...
Loading historical data...

Documentation

Showing up to 5 results
|